Туголесский Бор

Россия / Московская область     55°33′32″N   39°47′54″E
темп.,
°C
ветер,
м/с
пор.,
м/с
влажн.,
%
обл.,
%
осадки,
мм/ч
давл.,
гПа
погр.,
м
11 апреля, вс
вс1100:00+2ююз25720 0.0 102685
03:00+1юз25740 0.0 102782
06:00+1юз22770 0.0 102838
09:00+8зюз23550 0.0 1029300
12:00+12зюз22420 0.0 10301022
15:00+14зюз11390 0.0 10301328
18:00+12вюв11505 0.0 103112
21:00+7в22695 0.0 103226
12 апреля, пн
пн1200:00+5вюв22768 0.0 103329
03:00+4в247963 0.0 103466
06:00+3всв21083100 0.0 1034234
09:00+8в51259100 0.0 1033563
12:00+12в5946100 0.0 1032803
15:00+11в5858100 0.0 1031712
18:00+10в41074100 0.0 1029538
21:00+8в3109494 0.0 1029264
13 апреля, вт
вт1300:00+7в3109699 0.0 1028229
03:00+7юв399428 0.0 1027163
06:00+7ююв3118962 0.0 1027182
09:00+13ююв4115855 0.0 1026398
12:00+18ю583631 0.0 10251007
15:00+20ю4731100 0.0 10241840
18:00+16ююв264994 0.0 1024149
21:00+11ююв246439 0.0 102460
14 апреля, ср
ср1400:00+10ююв3870100 0.0 1024143
03:00+9ююв3117538 0.0 1024216
06:00+8ююв397814 0.0 1023159
09:00+14ю475395 0.0 1023344
12:00+18ююв4640100 0.0 1022830
15:00+20ююв463157 0.0 10211801
18:00+17ююв2245100 0.0 102037
21:00+12юв2257100 0.0 102026
15 апреля, чт
чт1500:00+10ююв2262100 0.0 102026
03:00+8юв227092 0.0 101911
06:00+8юв2275100 0.0 101911
09:00+13юв1257100 0.0 1018228
12:00+18в124390 0.0 1017708
15:00+19св223435 0.0 10152314
18:00+17ссв4848100 0.0 1015353
21:00+10ссв61276100 0.0 1016569